,

(GMT )
Lytton

Weather History for CWLY - October, 2012

Change the Weather History Date:

Friday, October 12, 2012

  Actual Average Record
Temperature  
Mean Temperature 53 °F -  
Max Temperature 60 °F 57 °F 69 °F (2004)
Min Temperature 46 °F 41 °F 33 °F (1997)
Degree Days  
Heating Degree Days 12    
Growing Degree Days 3 (Base 50)    
Moisture  
Dew Point 42 °F    
Average Humidity 58    
Maximum Humidity 71    
Minimum Humidity 40    
Precipitation  
Precipitation 0.00 in - - ()
Sea Level Pressure  
Sea Level Pressure 29.72 in    
Wind  
Wind Speed 14 mph ()    
Max Wind Speed 25 mph    
Max Gust Speed 41 mph    
Visibility 9.0 miles    
Events      
Averages and records for this station are not official NWS values.
T = Trace of Precipitation, MM = Missing Value Source: Averaged Metar Reports

Daily Weather History Graph

Daily Weather History Graph

Search for Another Location

Airport or City:

Trip Planner

Search our weather history database for the weather conditions in past years. The results will help you decide how hot, cold, wet, or windy it might be!

Date:

Astronomy

Oct. 12, 2012 Rise Set
Actual Time 7:24 AM PDT 6:19 PM PDT
Civil Twilight 6:52 AM PDT 6:52 PM PDT
Nautical Twilight 6:14 AM PDT 7:29 PM PDT
Astronomical Twilight 5:36 AM PDT 8:07 PM PDT
Moon 3:57 AM PDT (10/12) 4:44 PM PDT (10/12)
Length of Visible Light 12h 00m
Length of Day
10h 54m
Waning Crescent, 10% of the Moon is Illuminated
Oct 12
Waning Crescent
Oct 15
New
Oct 21
First Quarter
Oct 29
Full
Nov 6
Last Quarter

Hourly Weather History & Observations

Time (PDT) Temp. Windchill Dew Point Humidity Pressure Visibility Wind Dir Wind Speed Gust Speed Precip Events Conditions
1:00 AM 46.4 °F 42.9 °F 37.4 °F 71% 29.67 in 9.0 mi North 6.9 mph - N/A   Clear
2:00 AM 47 °F - 37 °F 60% 29.65 in 9 mi North 8.1 mph - -  
2:00 AM 46.4 °F 42.4 °F 37.4 °F 71% 29.65 in 9.0 mi NNE 8.1 mph - N/A   Clear
3:00 AM 46.4 °F 42.4 °F 37.4 °F 71% 29.65 in 9.0 mi NNE 8.1 mph - N/A   Clear
4:00 AM 50.0 °F - 37.4 °F 62% 29.64 in 9.0 mi East 3.5 mph - N/A   Clear
5:00 AM 56 °F - 40 °F 44% 29.64 in 9 mi South 13.8 mph - -  
5:00 AM 57.2 °F - 41.0 °F 55% 29.64 in 9.0 mi South 20.7 mph 27.6 mph N/A   Clear
6:00 AM 57.2 °F - 39.2 °F 51% 29.64 in 9.0 mi South 25.3 mph 35.7 mph N/A   Clear
8:00 AM 58 °F - 40 °F 40% 29.68 in 9 mi SSW 18.4 mph - -  
8:00 AM 57.2 °F - 41.0 °F 55% 29.68 in 9.0 mi SSW 19.6 mph 31.1 mph N/A   Clear
9:00 AM 57.2 °F - 41.0 °F 55% 29.69 in 9.0 mi SSW 16.1 mph 33.4 mph N/A   Partly Cloudy
10:00 AM 59.0 °F - 41.0 °F 51% 29.70 in 9.0 mi South 18.4 mph 28.8 mph N/A   Clear
11:00 AM 59 °F - 43 °F 44% 29.73 in 9 mi South 18.4 mph - -  
11:00 AM 59.0 °F - 42.8 °F 55% 29.73 in 9.0 mi South 17.3 mph 25.3 mph N/A   Partly Cloudy
11:28 AM 59.0 °F - 42.8 °F 55% 29.72 in 9.0 mi South 23.0 mph 35.7 mph N/A   Partly Cloudy
11:42 AM 59.0 °F - 42.8 °F 55% 29.72 in 9.0 mi South 20.7 mph 35.7 mph N/A   Partly Cloudy
12:00 PM 60.8 °F - 44.6 °F 55% 29.74 in 9.0 mi SSW 21.9 mph 33.4 mph N/A   Partly Cloudy
1:00 PM 59.0 °F - 44.6 °F 59% 29.74 in 9.0 mi South 25.3 mph 41.4 mph N/A   Scattered Clouds
2:00 PM 59 °F - 44 °F 47% 29.75 in 9 mi South 25.3 mph - -  
2:00 PM 59.0 °F - 44.6 °F 59% 29.75 in 9.0 mi South 25.3 mph 38.0 mph N/A   Mostly Cloudy
3:00 PM 59.0 °F - 44.6 °F 59% 29.76 in 9.0 mi South 21.9 mph 33.4 mph N/A   Mostly Cloudy
4:00 PM 59.0 °F - 44.6 °F 59% 29.75 in 9.0 mi South 20.7 mph 31.1 mph N/A   Overcast
5:00 PM 59.0 °F - 44.6 °F 59% 29.76 in 9.0 mi South 21.9 mph 33.4 mph N/A   Mostly Cloudy
6:00 PM 57.2 °F - 44.6 °F 63% 29.78 in 9.0 mi South 23.0 mph 32.2 mph N/A   Mostly Cloudy
7:00 PM 57.2 °F - 44.6 °F 63% 29.79 in 9.0 mi SSW 20.7 mph 31.1 mph N/A   Partly Cloudy
8:00 PM 57 °F - 45 °F 53% 29.80 in 9 mi South 19.6 mph - -  
8:00 PM 57.2 °F - 44.6 °F 63% 29.80 in 9.0 mi SSW 21.9 mph 33.4 mph N/A   Clear
9:00 PM 55.4 °F - 44.6 °F 67% 29.80 in 9.0 mi SSW 19.6 mph 29.9 mph N/A   Partly Cloudy
10:00 PM 55.4 °F - 44.6 °F 67% 29.81 in 9.0 mi South 19.6 mph 34.5 mph N/A   Partly Cloudy